Location: Hannover
(52.3723°N, 9.7339°E)
Time: 02:43:00
(UTC+01:00)

ISS - Pass Details

Date: 15 November 2017
Orbit: 401 x 407 km, 51.6° (Epoch: 25 November)

Event Time Altitude Azimuth Distance (km) Brightness Sun altitude
Exits shadow 04:55:40 19° 137° (SE) 1,028 -1.4 -25.2°
Drops below altitude 10° 04:56:47 10° 129° (SE) 1,452 -0.4 -25.0°
Sets 04:58:55 0° 122° (ESE) 2,309 0.9 -24.7°
